Time,TemperatureF,DewpointF,PressureIn,WindDirection,WindDirectionDegrees,WindSpeedMPH,WindSpeedGustMPH,Humidity,HourlyPrecipIn,Conditions,Clouds,dailyrainin,SoftwareType,DateUTC
2013-07-22 00:01:00,71.0,70.0,29.88,SW,225,0.0,0.0,99,0.00,,,0.00,Rainwise IP-100,2013-07-22 05:01:00,
2013-07-22 00:06:00,71.0,70.0,29.87,NE,45,0.0,1.0,99,0.00,,,0.00,Rainwise IP-100,2013-07-22 05:06:00,
2013-07-22 00:11:00,71.0,70.0,29.87,SSE,157,0.0,4.0,99,0.00,,,0.00,Rainwise IP-100,2013-07-22 05:11:00,
2013-07-22 00:16:00,71.0,70.0,29.87,SSE,157,3.0,3.0,99,0.00,,,0.00,Rainwise IP-100,2013-07-22 05:16:00,
2013-07-22 00:21:00,71.0,70.0,29.87,SSE,157,0.0,3.0,99,0.00,,,0.00,Rainwise IP-100,2013-07-22 05:21:00,
2013-07-22 00:26:00,71.0,70.0,29.86,South,180,1.0,2.0,99,0.00,,,0.00,Rainwise IP-100,2013-07-22 05:26:00,
2013-07-22 00:31:00,71.0,70.0,29.86,South,180,1.0,4.0,99,0.00,,,0.00,Rainwise IP-100,2013-07-22 05:31:00,
2013-07-22 00:36:00,71.0,70.0,29.86,South,180,0.0,3.0,99,0.00,,,0.00,Rainwise IP-100,2013-07-22 05:36:00,
2013-07-22 00:41:00,71.0,70.0,29.86,South,180,0.0,3.0,99,0.00,,,0.00,Rainwise IP-100,2013-07-22 05:41:00,
2013-07-22 00:46:00,72.0,71.0,29.87,SSE,157,1.0,4.0,99,0.00,,,0.00,Rainwise IP-100,2013-07-22 05:46:00,
2013-07-22 00:51:00,71.0,70.0,29.87,SE,135,1.0,5.0,99,0.00,,,0.00,Rainwise IP-100,2013-07-22 05:51:00,
2013-07-22 00:56:00,72.0,71.0,29.86,SW,225,2.0,6.0,99,0.00,,,0.00,Rainwise IP-100,2013-07-22 05:56:00,
2013-07-22 01:01:00,72.0,71.0,29.86,SW,225,1.0,7.0,99,0.00,,,0.00,Rainwise IP-100,2013-07-22 06:01:00,
2013-07-22 01:06:00,72.0,71.0,29.86,SSE,157,4.0,7.0,99,0.00,,,0.00,Rainwise IP-100,2013-07-22 06:06:00,
2013-07-22 01:11:00,72.0,71.0,29.86,SSE,157,5.0,8.0,99,0.00,,,0.00,Rainwise IP-100,2013-07-22 06:11:00,
2013-07-22 01:16:00,72.0,71.0,29.85,WSW,247,5.0,8.0,99,0.00,,,0.00,Rainwise IP-100,2013-07-22 06:16:00,
2013-07-22 01:21:00,72.0,71.0,29.85,SSW,202,2.0,9.0,99,0.00,,,0.00,Rainwise IP-100,2013-07-22 06:21:00,
2013-07-22 01:24:00,72.0,71.0,29.84,SW,225,6.0,9.0,99,0.00,,,0.00,Rainwise IP-100,2013-07-22 06:24:00,
2013-07-22 01:29:00,72.0,71.0,29.84,SW,225,1.0,0.0,99,0.00,,,0.00,Rainwise IP-100,2013-07-22 06:29:00,
2013-07-22 01:34:00,72.0,71.0,29.84,SW,225,4.0,7.0,99,0.00,,,0.00,Rainwise IP-100,2013-07-22 06:34:00,
2013-07-22 01:39:00,72.0,71.0,29.84,SW,225,2.0,6.0,99,0.00,,,0.00,Rainwise IP-100,2013-07-22 06:39:00,
2013-07-22 01:44:00,72.0,71.0,29.84,SE,135,3.0,6.0,99,0.00,,,0.00,Rainwise IP-100,2013-07-22 06:44:00,
2013-07-22 01:49:00,72.0,71.0,29.84,SW,225,3.0,4.0,99,0.00,,,0.00,Rainwise IP-100,2013-07-22 06:49:00,
2013-07-22 01:54:00,72.0,71.0,29.84,WSW,247,1.0,6.0,99,0.06,,,0.01,Rainwise IP-100,2013-07-22 06:54:00,
2013-07-22 01:59:00,72.0,71.0,29.84,SSE,157,0.0,6.0,99,0.06,,,0.01,Rainwise IP-100,2013-07-22 06:59:00,
2013-07-22 02:04:00,72.0,71.0,29.84,South,180,3.0,5.0,99,0.00,,,0.01,Rainwise IP-100,2013-07-22 07:04:00,
2013-07-22 02:09:00,72.0,71.0,29.84,SW,225,0.0,7.0,99,0.00,,,0.01,Rainwise IP-100,2013-07-22 07:09:00,
2013-07-22 02:14:00,72.0,71.0,29.83,South,180,0.0,5.0,99,0.00,,,0.01,Rainwise IP-100,2013-07-22 07:14:00,
2013-07-22 02:19:00,72.0,71.0,29.83,SE,135,0.0,3.0,99,0.00,,,0.01,Rainwise IP-100,2013-07-22 07:19:00,
2013-07-22 02:24:00,72.0,71.0,29.83,West,270,1.0,5.0,99,0.00,,,0.01,Rainwise IP-100,2013-07-22 07:24:00,
2013-07-22 02:29:00,72.0,71.0,29.83,SSE,157,4.0,6.0,99,0.00,,,0.01,Rainwise IP-100,2013-07-22 07:29:00,
2013-07-22 02:34:00,72.0,71.0,29.83,West,270,3.0,5.0,99,0.06,,,0.02,Rainwise IP-100,2013-07-22 07:34:00,
2013-07-22 02:39:00,72.0,71.0,29.83,SW,225,0.0,5.0,99,0.18,,,0.05,Rainwise IP-100,2013-07-22 07:39:00,
2013-07-22 02:44:00,72.0,71.0,29.83,NE,45,2.0,3.0,99,0.18,,,0.05,Rainwise IP-100,2013-07-22 07:44:00,
2013-07-22 02:49:00,72.0,71.0,29.83,SW,225,2.0,4.0,99,0.12,,,0.06,Rainwise IP-100,2013-07-22 07:49:00,
2013-07-22 02:54:00,72.0,71.0,29.83,WSW,247,0.0,4.0,99,0.06,,,0.06,Rainwise IP-100,2013-07-22 07:54:00,
2013-07-22 02:59:00,72.0,71.0,29.83,WSW,247,0.0,0.0,99,0.00,,,0.07,Rainwise IP-100,2013-07-22 07:59:00,
2013-07-22 03:04:00,72.0,71.0,29.83,SSW,202,0.0,4.0,99,0.06,,,0.07,Rainwise IP-100,2013-07-22 08:04:00,
2013-07-22 03:09:00,72.0,71.0,29.83,SW,225,4.0,5.0,99,0.18,,,0.09,Rainwise IP-100,2013-07-22 08:09:00,
2013-07-22 03:14:00,72.0,71.0,29.83,SW,225,2.0,6.0,99,0.18,,,0.10,Rainwise IP-100,2013-07-22 08:14:00,
2013-07-22 03:19:00,72.0,71.0,29.83,South,180,2.0,4.0,99,0.12,,,0.11,Rainwise IP-100,2013-07-22 08:19:00,
2013-07-22 03:24:00,72.0,71.0,29.83,SW,225,0.0,4.0,99,0.12,,,0.13,Rainwise IP-100,2013-07-22 08:24:00,
2013-07-22 03:29:00,72.0,71.0,29.83,SW,225,1.0,3.0,99,0.18,,,0.14,Rainwise IP-100,2013-07-22 08:29:00,
2013-07-22 03:34:00,72.0,71.0,29.82,East,90,0.0,5.0,99,0.18,,,0.15,Rainwise IP-100,2013-07-22 08:34:00,
2013-07-22 03:39:00,72.0,71.0,29.82,SW,225,2.0,9.0,99,0.18,,,0.17,Rainwise IP-100,2013-07-22 08:39:00,
2013-07-22 03:44:00,72.0,71.0,29.82,SE,135,0.0,4.0,99,0.18,,,0.18,Rainwise IP-100,2013-07-22 08:44:00,
2013-07-22 03:49:00,72.0,71.0,29.82,SW,225,0.0,3.0,99,0.12,,,0.19,Rainwise IP-100,2013-07-22 08:49:00,
2013-07-22 03:54:00,72.0,71.0,29.81,SSW,202,5.0,5.0,99,0.12,,,0.20,Rainwise IP-100,2013-07-22 08:54:00,
2013-07-22 03:59:00,72.0,71.0,29.81,SW,225,2.0,5.0,99,0.06,,,0.21,Rainwise IP-100,2013-07-22 08:59:00,
2013-07-22 04:04:00,72.0,71.0,29.82,South,180,3.0,5.0,99,0.06,,,0.22,Rainwise IP-100,2013-07-22 09:04:00,
2013-07-22 04:09:00,72.0,71.0,29.82,SW,225,0.0,6.0,99,0.18,,,0.23,Rainwise IP-100,2013-07-22 09:09:00,
2013-07-22 04:14:00,72.0,71.0,29.81,South,180,4.0,4.0,99,0.18,,,0.24,Rainwise IP-100,2013-07-22 09:14:00,
2013-07-22 04:19:00,72.0,71.0,29.81,South,180,5.0,6.0,99,0.12,,,0.26,Rainwise IP-100,2013-07-22 09:19:00,
2013-07-22 04:24:00,72.0,71.0,29.81,West,270,0.0,5.0,99,0.18,,,0.27,Rainwise IP-100,2013-07-22 09:24:00,
2013-07-22 04:29:00,72.0,71.0,29.81,South,180,0.0,8.0,99,0.18,,,0.28,Rainwise IP-100,2013-07-22 09:29:00,
2013-07-22 04:34:00,72.0,71.0,29.80,South,180,6.0,6.0,99,0.12,,,0.30,Rainwise IP-100,2013-07-22 09:34:00,
2013-07-22 04:39:00,72.0,71.0,29.80,SW,225,4.0,6.0,99,0.24,,,0.33,Rainwise IP-100,2013-07-22 09:39:00,
2013-07-22 04:44:00,72.0,71.0,29.81,South,180,1.0,7.0,99,0.36,,,0.36,Rainwise IP-100,2013-07-22 09:44:00,
2013-07-22 04:49:00,72.0,71.0,29.81,SW,225,0.0,6.0,99,0.36,,,0.38,Rainwise IP-100,2013-07-22 09:49:00,
2013-07-22 04:50:00,72.0,71.0,29.81,WNW,292,0.0,6.0,99,0.36,,,0.39,Rainwise IP-100,2013-07-22 09:50:00,
2013-07-22 04:55:00,72.0,71.0,29.81,South,180,1.0,4.0,99,0.30,,,0.41,Rainwise IP-100,2013-07-22 09:55:00,
2013-07-22 05:00:00,71.0,70.0,29.81,WSW,247,1.0,6.0,99,0.24,,,0.43,Rainwise IP-100,2013-07-22 10:00:00,
2013-07-22 05:04:00,71.0,70.0,29.81,WSW,247,1.0,4.0,99,0.24,,,0.45,Rainwise IP-100,2013-07-22 10:04:00,
2013-07-22 05:09:00,71.0,70.0,29.81,WSW,247,0.0,2.0,99,0.24,,,0.47,Rainwise IP-100,2013-07-22 10:09:00,
2013-07-22 05:14:00,71.0,70.0,29.81,WSW,247,0.0,1.0,99,0.36,,,0.51,Rainwise IP-100,2013-07-22 10:14:00,
2013-07-22 05:19:00,71.0,70.0,29.81,WSW,247,0.0,0.0,99,0.48,,,0.55,Rainwise IP-100,2013-07-22 10:19:00,
2013-07-22 05:24:00,71.0,70.0,29.82,WSW,247,0.0,1.0,99,0.36,,,0.57,Rainwise IP-100,2013-07-22 10:24:00,
2013-07-22 05:25:00,71.0,70.0,29.82,WSW,247,0.0,1.0,99,0.36,,,0.57,Rainwise IP-100,2013-07-22 10:25:00,
2013-07-22 05:30:00,71.0,70.0,29.82,WSW,247,0.0,0.0,99,0.12,,,0.57,Rainwise IP-100,2013-07-22 10:30:00,
2013-07-22 05:35:00,71.0,70.0,29.82,WSW,247,0.0,0.0,99,0.00,,,0.57,Rainwise IP-100,2013-07-22 10:35:00,
2013-07-22 05:40:00,71.0,70.0,29.82,WSW,247,0.0,0.0,99,0.00,,,0.57,Rainwise IP-100,2013-07-22 10:40:00,
2013-07-22 05:45:00,71.0,70.0,29.82,WSW,247,0.0,0.0,99,0.00,,,0.57,Rainwise IP-100,2013-07-22 10:45:00,
2013-07-22 05:50:00,71.0,70.0,29.82,WSW,247,0.0,0.0,99,0.00,,,0.57,Rainwise IP-100,2013-07-22 10:50:00,
2013-07-22 05:55:00,71.0,70.0,29.82,WSW,247,0.0,0.0,99,0.00,,,0.57,Rainwise IP-100,2013-07-22 10:55:00,
2013-07-22 06:00:00,71.0,70.0,29.82,WSW,247,0.0,0.0,99,0.00,,,0.57,Rainwise IP-100,2013-07-22 11:00:00,
2013-07-22 06:05:00,71.0,70.0,29.82,WSW,247,0.0,0.0,99,0.00,,,0.57,Rainwise IP-100,2013-07-22 11:05:00,
2013-07-22 06:10:00,71.0,70.0,29.82,WSW,247,0.0,0.0,99,0.00,,,0.57,Rainwise IP-100,2013-07-22 11:10:00,
2013-07-22 06:15:00,71.0,70.0,29.82,WSW,247,0.0,2.0,99,0.00,,,0.57,Rainwise IP-100,2013-07-22 11:15:00,
2013-07-22 06:20:00,71.0,70.0,29.82,WSW,247,3.0,4.0,99,0.00,,,0.57,Rainwise IP-100,2013-07-22 11:20:00,
2013-07-22 06:25:00,71.0,70.0,29.81,SE,135,3.0,4.0,99,0.00,,,0.57,Rainwise IP-100,2013-07-22 11:25:00,
2013-07-22 06:30:00,71.0,70.0,29.81,SE,135,2.0,4.0,99,0.00,,,0.57,Rainwise IP-100,2013-07-22 11:30:00,
2013-07-22 06:35:00,71.0,70.0,29.81,SE,135,0.0,2.0,99,0.00,,,0.57,Rainwise IP-100,2013-07-22 11:35:00,
2013-07-22 06:40:00,71.0,70.0,29.81,SE,135,0.0,0.0,99,0.00,,,0.57,Rainwise IP-100,2013-07-22 11:40:00,
2013-07-22 06:45:00,71.0,70.0,29.81,SE,135,0.0,2.0,99,0.00,,,0.57,Rainwise IP-100,2013-07-22 11:45:00,
2013-07-22 06:50:00,71.0,70.0,29.81,SE,135,0.0,0.0,99,0.00,,,0.57,Rainwise IP-100,2013-07-22 11:50:00,
2013-07-22 06:55:00,71.0,70.0,29.81,SE,135,0.0,0.0,99,0.00,,,0.57,Rainwise IP-100,2013-07-22 11:55:00,
2013-07-22 07:00:00,71.0,70.0,29.81,SE,135,0.0,0.0,99,0.00,,,0.57,Rainwise IP-100,2013-07-22 12:00:00,
2013-07-22 07:05:00,71.0,70.0,29.82,SSE,157,0.0,1.0,99,0.00,,,0.57,Rainwise IP-100,2013-07-22 12:05:00,
2013-07-22 07:10:00,72.0,71.0,29.82,NE,45,0.0,1.0,99,0.00,,,0.57,Rainwise IP-100,2013-07-22 12:10:00,
2013-07-22 07:15:00,72.0,71.0,29.83,NE,45,0.0,0.0,99,0.00,,,0.57,Rainwise IP-100,2013-07-22 12:15:00,
2013-07-22 07:20:00,72.0,71.0,29.83,NE,45,0.0,0.0,99,0.00,,,0.57,Rainwise IP-100,2013-07-22 12:20:00,
2013-07-22 07:25:00,72.0,71.0,29.83,NE,45,0.0,0.0,99,0.00,,,0.57,Rainwise IP-100,2013-07-22 12:25:00,
2013-07-22 07:30:00,72.0,71.0,29.83,NE,45,0.0,0.0,99,0.00,,,0.57,Rainwise IP-100,2013-07-22 12:30:00,
2013-07-22 07:35:00,72.0,71.0,29.83,NE,45,0.0,0.0,99,0.00,,,0.57,Rainwise IP-100,2013-07-22 12:35:00,
2013-07-22 07:40:00,72.0,71.0,29.83,NE,45,0.0,0.0,99,0.00,,,0.57,Rainwise IP-100,2013-07-22 12:40:00,
2013-07-22 07:45:00,72.0,71.0,29.83,South,180,1.0,3.0,99,0.00,,,0.57,Rainwise IP-100,2013-07-22 12:45:00,
2013-07-22 07:50:00,72.0,71.0,29.83,South,180,0.0,3.0,99,0.00,,,0.57,Rainwise IP-100,2013-07-22 12:50:00,
2013-07-22 07:55:00,72.0,71.0,29.83,SW,225,0.0,2.0,99,0.00,,,0.57,Rainwise IP-100,2013-07-22 12:55:00,
2013-07-22 08:00:00,72.0,71.0,29.83,SW,225,1.0,1.0,99,0.00,,,0.57,Rainwise IP-100,2013-07-22 13:00:00,
2013-07-22 08:05:00,72.0,71.0,29.84,SW,225,0.0,2.0,99,0.00,,,0.57,Rainwise IP-100,2013-07-22 13:05:00,
2013-07-22 08:10:00,72.0,71.0,29.84,SW,225,0.0,3.0,99,0.00,,,0.57,Rainwise IP-100,2013-07-22 13:10:00,
2013-07-22 08:15:00,72.0,71.0,29.84,SSW,202,0.0,3.0,99,0.00,,,0.57,Rainwise IP-100,2013-07-22 13:15:00,
2013-07-22 08:20:00,72.0,71.0,29.84,West,270,1.0,4.0,99,0.00,,,0.57,Rainwise IP-100,2013-07-22 13:20:00,
2013-07-22 08:25:00,72.0,71.0,29.85,SW,225,0.0,6.0,99,0.00,,,0.57,Rainwise IP-100,2013-07-22 13:25:00,
2013-07-22 08:30:00,72.0,71.0,29.85,SW,225,2.0,3.0,99,0.00,,,0.57,Rainwise IP-100,2013-07-22 13:30:00,
2013-07-22 08:35:00,73.0,72.0,29.85,South,180,0.0,4.0,99,0.00,,,0.57,Rainwise IP-100,2013-07-22 13:35:00,
2013-07-22 08:40:00,73.0,72.0,29.85,SW,225,0.0,3.0,99,0.00,,,0.57,Rainwise IP-100,2013-07-22 13:40:00,
2013-07-22 08:45:00,73.0,72.0,29.85,SE,135,1.0,3.0,99,0.00,,,0.57,Rainwise IP-100,2013-07-22 13:45:00,
2013-07-22 08:50:00,73.0,72.0,29.85,South,180,0.0,4.0,99,0.00,,,0.57,Rainwise IP-100,2013-07-22 13:50:00,
2013-07-22 08:55:00,73.0,72.0,29.85,WSW,247,0.0,2.0,99,0.00,,,0.57,Rainwise IP-100,2013-07-22 13:55:00,
2013-07-22 09:00:00,73.0,72.0,29.85,WSW,247,1.0,4.0,99,0.00,,,0.57,Rainwise IP-100,2013-07-22 14:00:00,
2013-07-22 09:05:00,73.0,72.0,29.85,SW,225,6.0,6.0,99,0.06,,,0.58,Rainwise IP-100,2013-07-22 14:05:00,
2013-07-22 09:10:00,73.0,72.0,29.85,SW,225,0.0,6.0,99,0.06,,,0.58,Rainwise IP-100,2013-07-22 14:10:00,
2013-07-22 09:15:00,73.0,72.0,29.85,South,180,2.0,3.0,99,0.00,,,0.58,Rainwise IP-100,2013-07-22 14:15:00,
2013-07-22 09:20:00,73.0,72.0,29.85,WSW,247,3.0,6.0,99,0.00,,,0.58,Rainwise IP-100,2013-07-22 14:20:00,
2013-07-22 09:25:00,73.0,72.0,29.85,West,270,0.0,4.0,99,0.00,,,0.58,Rainwise IP-100,2013-07-22 14:25:00,
2013-07-22 09:30:00,73.0,72.0,29.85,West,270,0.0,4.0,99,0.00,,,0.58,Rainwise IP-100,2013-07-22 14:30:00,
2013-07-22 09:35:00,73.0,72.0,29.85,SW,225,1.0,4.0,99,0.00,,,0.58,Rainwise IP-100,2013-07-22 14:35:00,
2013-07-22 09:40:00,73.0,72.0,29.85,WSW,247,0.0,2.0,99,0.00,,,0.58,Rainwise IP-100,2013-07-22 14:40:00,
2013-07-22 09:45:00,73.0,72.0,29.86,SW,225,3.0,6.0,99,0.00,,,0.58,Rainwise IP-100,2013-07-22 14:45:00,
2013-07-22 09:50:00,73.0,72.0,29.86,WSW,247,2.0,3.0,99,0.00,,,0.58,Rainwise IP-100,2013-07-22 14:50:00,
2013-07-22 09:55:00,73.0,72.0,29.86,West,270,3.0,4.0,99,0.00,,,0.58,Rainwise IP-100,2013-07-22 14:55:00,
2013-07-22 10:00:00,73.0,72.0,29.86,SSE,157,2.0,4.0,99,0.00,,,0.58,Rainwise IP-100,2013-07-22 15:00:00,
2013-07-22 10:05:00,73.0,72.0,29.86,SSE,157,2.0,2.0,99,0.00,,,0.58,Rainwise IP-100,2013-07-22 15:05:00,
2013-07-22 10:10:00,73.0,72.0,29.86,SW,225,0.0,2.0,99,0.00,,,0.58,Rainwise IP-100,2013-07-22 15:10:00,
2013-07-22 10:15:00,73.0,72.0,29.86,South,180,2.0,4.0,99,0.00,,,0.58,Rainwise IP-100,2013-07-22 15:15:00,
2013-07-22 10:20:00,73.0,72.0,29.86,South,180,2.0,4.0,99,0.00,,,0.58,Rainwise IP-100,2013-07-22 15:20:00,
2013-07-22 10:25:00,74.0,73.0,29.86,SW,225,1.0,4.0,99,0.00,,,0.58,Rainwise IP-100,2013-07-22 15:25:00,
2013-07-22 10:30:00,74.0,73.0,29.86,SW,225,1.0,2.0,99,0.00,,,0.58,Rainwise IP-100,2013-07-22 15:30:00,
2013-07-22 10:35:00,74.0,73.0,29.85,SW,225,3.0,6.0,99,0.00,,,0.58,Rainwise IP-100,2013-07-22 15:35:00,
2013-07-22 10:40:00,74.0,73.0,29.85,WSW,247,1.0,0.0,99,0.00,,,0.58,Rainwise IP-100,2013-07-22 15:40:00,
2013-07-22 10:45:00,75.0,74.0,29.85,South,180,1.0,0.0,99,0.00,,,0.58,Rainwise IP-100,2013-07-22 15:45:00,
2013-07-22 10:50:00,75.0,74.0,29.85,South,180,5.0,7.0,99,0.00,,,0.58,Rainwise IP-100,2013-07-22 15:50:00,
2013-07-22 10:55:00,75.0,74.0,29.85,WSW,247,3.0,7.0,99,0.00,,,0.58,Rainwise IP-100,2013-07-22 15:55:00,
2013-07-22 11:00:00,75.0,74.0,29.85,SSE,157,1.0,5.0,99,0.00,,,0.58,Rainwise IP-100,2013-07-22 16:00:00,
2013-07-22 11:05:00,75.0,74.0,29.85,SW,225,5.0,5.0,99,0.00,,,0.58,Rainwise IP-100,2013-07-22 16:05:00,
2013-07-22 11:10:00,76.0,76.0,29.85,South,180,2.0,5.0,100,0.00,,,0.58,Rainwise IP-100,2013-07-22 16:10:00,
2013-07-22 11:15:00,76.0,76.0,29.85,SW,225,3.0,5.0,100,0.00,,,0.58,Rainwise IP-100,2013-07-22 16:15:00,
2013-07-22 11:20:00,76.0,76.0,29.85,SW,225,3.0,5.0,100,0.00,,,0.58,Rainwise IP-100,2013-07-22 16:20:00,
2013-07-22 11:25:00,77.0,75.0,29.85,SW,225,4.0,5.0,94,0.00,,,0.58,Rainwise IP-100,2013-07-22 16:25:00,
2013-07-22 11:30:00,77.0,75.0,29.85,SW,225,4.0,4.0,94,0.00,,,0.58,Rainwise IP-100,2013-07-22 16:30:00,
2013-07-22 11:35:00,77.0,75.0,29.85,SW,225,4.0,4.0,94,0.00,,,0.58,Rainwise IP-100,2013-07-22 16:35:00,
2013-07-22 11:40:00,77.0,75.0,29.85,SW,225,4.0,4.0,94,0.00,,,0.58,Rainwise IP-100,2013-07-22 16:40:00,
2013-07-22 11:45:00,78.0,75.0,29.87,SW,225,1.0,6.0,92,0.00,,,0.58,Rainwise IP-100,2013-07-22 16:45:00,
2013-07-22 11:50:00,78.0,74.0,29.87,South,180,2.0,4.0,90,0.00,,,0.58,Rainwise IP-100,2013-07-22 16:50:00,
2013-07-22 11:55:00,79.0,74.0,29.86,SE,135,1.0,5.0,86,0.00,,,0.58,Rainwise IP-100,2013-07-22 16:55:00,
2013-07-22 12:00:00,79.0,74.0,29.86,SW,225,2.0,6.0,85,0.00,,,0.58,Rainwise IP-100,2013-07-22 17:00:00,
2013-07-22 12:05:00,80.0,74.0,29.85,WNW,292,4.0,6.0,84,0.00,,,0.58,Rainwise IP-100,2013-07-22 17:05:00,
2013-07-22 12:10:00,80.0,72.0,29.85,NE,45,1.0,6.0,79,0.00,,,0.58,Rainwise IP-100,2013-07-22 17:10:00,
2013-07-22 12:15:00,80.0,73.0,29.86,South,180,2.0,6.0,80,0.00,,,0.58,Rainwise IP-100,2013-07-22 17:15:00,
2013-07-22 12:20:00,82.0,73.0,29.86,SSW,202,2.0,5.0,76,0.00,,,0.58,Rainwise IP-100,2013-07-22 17:20:00,
2013-07-22 12:25:00,82.0,74.0,29.85,SW,225,2.0,6.0,78,0.00,,,0.58,Rainwise IP-100,2013-07-22 17:25:00,
2013-07-22 12:30:00,81.0,72.0,29.85,WNW,292,2.0,8.0,74,0.00,,,0.58,Rainwise IP-100,2013-07-22 17:30:00,
2013-07-22 12:35:00,82.0,74.0,29.85,South,180,0.0,9.0,77,0.00,,,0.58,Rainwise IP-100,2013-07-22 17:35:00,
2013-07-22 12:40:00,83.0,76.0,29.85,West,270,6.0,9.0,80,0.00,,,0.58,Rainwise IP-100,2013-07-22 17:40:00,
2013-07-22 12:45:00,82.0,75.0,29.85,SSE,157,3.0,9.0,80,0.00,,,0.58,Rainwise IP-100,2013-07-22 17:45:00,
2013-07-22 12:50:00,82.0,75.0,29.85,SSW,202,2.0,5.0,81,0.00,,,0.58,Rainwise IP-100,2013-07-22 17:50:00,
2013-07-22 12:55:00,84.0,76.0,29.84,West,270,0.0,5.0,76,0.00,,,0.58,Rainwise IP-100,2013-07-22 17:55:00,
2013-07-22 13:00:00,84.0,76.0,29.84,SW,225,1.0,6.0,77,0.00,,,0.58,Rainwise IP-100,2013-07-22 18:00:00,
2013-07-22 13:05:00,84.0,73.0,29.83,NW,315,4.0,6.0,70,0.00,,,0.58,Rainwise IP-100,2013-07-22 18:05:00,
2013-07-22 13:10:00,84.0,74.0,29.83,SSE,157,2.0,6.0,73,0.00,,,0.58,Rainwise IP-100,2013-07-22 18:10:00,
2013-07-22 13:15:00,83.0,71.0,29.84,WNW,292,7.0,7.0,67,0.00,,,0.58,Rainwise IP-100,2013-07-22 18:15:00,
2013-07-22 13:20:00,84.0,76.0,29.84,WNW,292,6.0,7.0,78,0.00,,,0.58,Rainwise IP-100,2013-07-22 18:20:00,
2013-07-22 13:25:00,84.0,76.0,29.84,WSW,247,1.0,7.0,78,0.00,,,0.58,Rainwise IP-100,2013-07-22 18:25:00,
2013-07-22 13:30:00,84.0,76.0,29.84,WSW,247,1.0,7.0,78,0.00,,,0.58,Rainwise IP-100,2013-07-22 18:30:00,
2013-07-22 13:35:00,84.0,74.0,29.83,WNW,292,4.0,7.0,72,0.00,,,0.58,Rainwise IP-100,2013-07-22 18:35:00,
2013-07-22 13:40:00,82.0,71.0,29.83,SSW,202,7.0,7.0,71,0.00,,,0.58,Rainwise IP-100,2013-07-22 18:40:00,
2013-07-22 13:45:00,82.0,71.0,29.83,SSW,202,7.0,7.0,71,0.00,,,0.58,Rainwise IP-100,2013-07-22 18:45:00,
2013-07-22 13:50:00,82.0,71.0,29.83,SE,135,3.0,7.0,71,0.00,,,0.58,Rainwise IP-100,2013-07-22 18:50:00,
2013-07-22 13:55:00,82.0,71.0,29.83,SE,135,3.0,7.0,71,0.00,,,0.58,Rainwise IP-100,2013-07-22 18:55:00,
2013-07-22 14:00:00,84.0,73.0,29.84,ESE,112,3.0,7.0,71,0.00,,,0.58,Rainwise IP-100,2013-07-22 19:00:00,
2013-07-22 14:05:00,84.0,73.0,29.84,ESE,112,3.0,4.0,71,0.00,,,0.58,Rainwise IP-100,2013-07-22 19:05:00,
2013-07-22 14:10:00,85.0,73.0,29.83,SW,225,1.0,5.0,69,0.00,,,0.58,Rainwise IP-100,2013-07-22 19:10:00,
2013-07-22 14:15:00,85.0,73.0,29.83,SW,225,1.0,4.0,69,0.00,,,0.58,Rainwise IP-100,2013-07-22 19:15:00,
2013-07-22 14:20:00,85.0,73.0,29.83,SW,225,1.0,4.0,69,0.00,,,0.58,Rainwise IP-100,2013-07-22 19:20:00,
2013-07-22 14:25:00,85.0,73.0,29.83,SW,225,1.0,4.0,69,0.00,,,0.58,Rainwise IP-100,2013-07-22 19:25:00,
2013-07-22 14:30:00,85.0,73.0,29.83,SW,225,1.0,4.0,69,0.00,,,0.58,Rainwise IP-100,2013-07-22 19:30:00,
2013-07-22 14:35:00,85.0,73.0,29.83,SW,225,3.0,4.0,69,0.00,,,0.58,Rainwise IP-100,2013-07-22 19:35:00,
2013-07-22 14:40:00,85.0,73.0,29.83,SW,225,1.0,4.0,69,0.00,,,0.58,Rainwise IP-100,2013-07-22 19:40:00,
2013-07-22 14:45:00,85.0,73.0,29.83,SW,225,1.0,4.0,69,0.00,,,0.58,Rainwise IP-100,2013-07-22 19:45:00,
2013-07-22 14:50:00,87.0,74.0,29.83,SW,225,2.0,6.0,66,0.00,,,0.58,Rainwise IP-100,2013-07-22 19:50:00,
2013-07-22 14:55:00,87.0,74.0,29.83,West,270,5.0,6.0,66,0.00,,,0.58,Rainwise IP-100,2013-07-22 19:55:00,
2013-07-22 15:00:00,87.0,74.0,29.83,West,270,5.0,6.0,66,0.00,,,0.58,Rainwise IP-100,2013-07-22 20:00:00,
2013-07-22 15:05:00,87.0,74.0,29.83,SW,225,2.0,6.0,66,0.00,,,0.58,Rainwise IP-100,2013-07-22 20:05:00,
2013-07-22 15:10:00,87.0,74.0,29.83,SW,225,2.0,6.0,66,0.00,,,0.58,Rainwise IP-100,2013-07-22 20:10:00,
2013-07-22 15:15:00,87.0,74.0,29.83,SW,225,2.0,6.0,66,0.00,,,0.58,Rainwise IP-100,2013-07-22 20:15:00,
2013-07-22 15:16:00,87.0,74.0,29.83,West,270,3.0,6.0,66,0.00,,,0.58,Rainwise IP-100,2013-07-22 20:16:00,
2013-07-22 15:21:00,85.0,72.0,29.82,SW,225,3.0,6.0,67,0.00,,,0.58,Rainwise IP-100,2013-07-22 20:21:00,
2013-07-22 15:26:00,85.0,72.0,29.82,SW,225,3.0,6.0,67,0.00,,,0.58,Rainwise IP-100,2013-07-22 20:26:00,
2013-07-22 15:31:00,85.0,72.0,29.82,SW,225,3.0,6.0,67,0.00,,,0.58,Rainwise IP-100,2013-07-22 20:31:00,
2013-07-22 15:36:00,88.0,74.0,29.81,NNW,337,3.0,6.0,64,0.00,,,0.58,Rainwise IP-100,2013-07-22 20:36:00,
2013-07-22 15:41:00,88.0,74.0,29.81,NNW,337,3.0,4.0,64,0.00,,,0.58,Rainwise IP-100,2013-07-22 20:41:00,
2013-07-22 15:42:00,88.0,74.0,29.81,NNW,337,3.0,4.0,64,0.00,,,0.58,Rainwise IP-100,2013-07-22 20:42:00,
2013-07-22 15:47:00,88.0,74.0,29.81,NNW,337,4.0,4.0,64,0.00,,,0.58,Rainwise IP-100,2013-07-22 20:47:00,
2013-07-22 15:52:00,88.0,74.0,29.81,NNW,337,3.0,4.0,64,0.00,,,0.58,Rainwise IP-100,2013-07-22 20:52:00,
2013-07-22 15:57:00,88.0,74.0,29.81,NNW,337,4.0,4.0,64,0.00,,,0.58,Rainwise IP-100,2013-07-22 20:57:00,
2013-07-22 16:02:00,88.0,74.0,29.81,NNW,337,4.0,4.0,64,0.00,,,0.58,Rainwise IP-100,2013-07-22 21:02:00,
2013-07-22 16:07:00,88.0,74.0,29.81,NNW,337,4.0,4.0,64,0.00,,,0.58,Rainwise IP-100,2013-07-22 21:07:00,
2013-07-22 16:12:00,88.0,74.0,29.81,NNW,337,4.0,4.0,64,0.00,,,0.58,Rainwise IP-100,2013-07-22 21:12:00,
2013-07-22 16:17:00,88.0,74.0,29.81,NNW,337,4.0,4.0,64,0.00,,,0.58,Rainwise IP-100,2013-07-22 21:17:00,
2013-07-22 16:20:00,88.0,74.0,29.81,NNW,337,2.0,4.0,64,0.00,,,0.58,Rainwise IP-100,2013-07-22 21:20:00,
2013-07-22 16:25:00,88.0,74.0,29.81,NNW,337,2.0,4.0,64,0.00,,,0.58,Rainwise IP-100,2013-07-22 21:25:00,
2013-07-22 16:30:00,88.0,74.0,29.81,NNW,337,2.0,4.0,64,0.00,,,0.58,Rainwise IP-100,2013-07-22 21:30:00,
2013-07-22 16:35:00,88.0,74.0,29.81,NNW,337,3.0,4.0,64,0.00,,,0.58,Rainwise IP-100,2013-07-22 21:35:00,
2013-07-22 16:40:00,86.0,73.0,29.81,NW,315,2.0,4.0,67,0.00,,,0.58,Rainwise IP-100,2013-07-22 21:40:00,
2013-07-22 16:45:00,86.0,73.0,29.81,NW,315,2.0,4.0,67,0.00,,,0.58,Rainwise IP-100,2013-07-22 21:45:00,
2013-07-22 16:50:00,87.0,73.0,29.81,WNW,292,2.0,7.0,65,0.00,,,0.58,Rainwise IP-100,2013-07-22 21:50:00,
2013-07-22 16:55:00,86.0,73.0,29.80,SSE,157,0.0,5.0,66,0.00,,,0.58,Rainwise IP-100,2013-07-22 21:55:00,
2013-07-22 17:00:00,86.0,73.0,29.80,ESE,112,1.0,5.0,67,0.00,,,0.58,Rainwise IP-100,2013-07-22 22:00:00,
2013-07-22 17:05:00,86.0,73.0,29.80,East,90,0.0,3.0,67,0.00,,,0.58,Rainwise IP-100,2013-07-22 22:05:00,
2013-07-22 17:10:00,86.0,73.0,29.80,ESE,112,1.0,3.0,67,0.00,,,0.58,Rainwise IP-100,2013-07-22 22:10:00,
2013-07-22 17:15:00,86.0,73.0,29.80,ESE,112,1.0,3.0,67,0.00,,,0.58,Rainwise IP-100,2013-07-22 22:15:00,
2013-07-22 17:20:00,86.0,73.0,29.80,ESE,112,1.0,3.0,67,0.00,,,0.58,Rainwise IP-100,2013-07-22 22:20:00,
2013-07-22 17:25:00,86.0,73.0,29.80,East,90,0.0,3.0,67,0.00,,,0.58,Rainwise IP-100,2013-07-22 22:25:00,
2013-07-22 17:30:00,86.0,73.0,29.80,ESE,112,1.0,3.0,67,0.00,,,0.58,Rainwise IP-100,2013-07-22 22:30:00,
2013-07-22 17:35:00,86.0,73.0,29.80,ESE,112,1.0,3.0,67,0.00,,,0.58,Rainwise IP-100,2013-07-22 22:35:00,
2013-07-22 17:40:00,86.0,73.0,29.80,ESE,112,1.0,3.0,67,0.00,,,0.58,Rainwise IP-100,2013-07-22 22:40:00,
2013-07-22 17:45:00,86.0,73.0,29.80,ESE,112,1.0,3.0,67,0.00,,,0.58,Rainwise IP-100,2013-07-22 22:45:00,
2013-07-22 17:50:00,86.0,73.0,29.79,SSW,202,1.0,3.0,66,0.00,,,0.58,Rainwise IP-100,2013-07-22 22:50:00,
2013-07-22 17:55:00,86.0,73.0,29.79,SSW,202,1.0,2.0,66,0.00,,,0.58,Rainwise IP-100,2013-07-22 22:55:00,
2013-07-22 18:00:00,86.0,73.0,29.79,SSW,202,1.0,2.0,66,0.00,,,0.58,Rainwise IP-100,2013-07-22 23:00:00,
2013-07-22 18:05:00,86.0,73.0,29.79,SW,225,2.0,2.0,66,0.00,,,0.58,Rainwise IP-100,2013-07-22 23:05:00,
2013-07-22 18:10:00,86.0,73.0,29.79,SW,225,2.0,2.0,66,0.00,,,0.58,Rainwise IP-100,2013-07-22 23:10:00,
2013-07-22 18:15:00,86.0,73.0,29.79,SW,225,2.0,2.0,66,0.00,,,0.58,Rainwise IP-100,2013-07-22 23:15:00,
2013-07-22 18:20:00,86.0,73.0,29.79,SW,225,2.0,2.0,66,0.00,,,0.58,Rainwise IP-100,2013-07-22 23:20:00,
2013-07-22 18:25:00,86.0,73.0,29.79,SW,225,2.0,2.0,66,0.00,,,0.58,Rainwise IP-100,2013-07-22 23:25:00,
2013-07-22 18:30:00,86.0,73.0,29.79,SW,225,2.0,2.0,66,0.00,,,0.58,Rainwise IP-100,2013-07-22 23:30:00,
2013-07-22 18:35:00,87.0,73.0,29.78,WNW,292,0.0,2.0,65,0.00,,,0.58,Rainwise IP-100,2013-07-22 23:35:00,
2013-07-22 18:40:00,87.0,73.0,29.78,WNW,292,0.0,0.0,65,0.00,,,0.58,Rainwise IP-100,2013-07-22 23:40:00,
2013-07-22 18:45:00,87.0,73.0,29.78,WNW,292,0.0,0.0,65,0.00,,,0.58,Rainwise IP-100,2013-07-22 23:45:00,
2013-07-22 18:50:00,87.0,73.0,29.78,WNW,292,0.0,0.0,65,0.00,,,0.58,Rainwise IP-100,2013-07-22 23:50:00,
2013-07-22 18:55:00,87.0,73.0,29.78,WNW,292,0.0,0.0,65,0.00,,,0.58,Rainwise IP-100,2013-07-22 23:55:00,
2013-07-22 19:00:00,87.0,73.0,29.78,WNW,292,0.0,0.0,65,0.00,,,0.58,Rainwise IP-100,2013-07-23 00:00:00,
2013-07-22 20:15:00,78.0,74.0,29.82,SW,225,3.0,0.0,88,0.00,,,0.58,Rainwise IP-100,2013-07-23 01:15:00,
2013-07-22 20:20:00,78.0,74.0,29.82,SW,225,1.0,3.0,88,0.00,,,0.58,Rainwise IP-100,2013-07-23 01:20:00,
2013-07-22 20:25:00,78.0,74.0,29.82,SW,225,1.0,3.0,88,0.00,,,0.58,Rainwise IP-100,2013-07-23 01:25:00,
2013-07-22 20:30:00,78.0,74.0,29.82,SW,225,1.0,3.0,88,0.00,,,0.58,Rainwise IP-100,2013-07-23 01:30:00,
2013-07-22 20:35:00,78.0,74.0,29.82,SW,225,1.0,3.0,88,0.00,,,0.58,Rainwise IP-100,2013-07-23 01:35:00,
2013-07-22 20:40:00,78.0,74.0,29.82,SW,225,1.0,3.0,88,0.00,,,0.58,Rainwise IP-100,2013-07-23 01:40:00,
2013-07-22 20:45:00,78.0,74.0,29.82,SW,225,1.0,3.0,88,0.00,,,0.58,Rainwise IP-100,2013-07-23 01:45:00,
2013-07-22 20:50:00,78.0,74.0,29.82,SW,225,1.0,3.0,88,0.00,,,0.58,Rainwise IP-100,2013-07-23 01:50:00,
2013-07-22 20:55:00,78.0,74.0,29.82,SW,225,1.0,3.0,88,0.00,,,0.58,Rainwise IP-100,2013-07-23 01:55:00,
2013-07-22 21:00:00,77.0,75.0,29.83,SW,225,0.0,3.0,94,0.00,,,0.58,Rainwise IP-100,2013-07-23 02:00:00,
2013-07-22 21:05:00,77.0,75.0,29.83,SW,225,1.0,2.0,94,0.00,,,0.58,Rainwise IP-100,2013-07-23 02:05:00,
2013-07-22 21:10:00,77.0,75.0,29.83,SW,225,0.0,2.0,94,0.00,,,0.58,Rainwise IP-100,2013-07-23 02:10:00,
2013-07-22 21:15:00,77.0,75.0,29.83,SW,225,0.0,2.0,94,0.00,,,0.58,Rainwise IP-100,2013-07-23 02:15:00,
2013-07-22 21:20:00,77.0,75.0,29.83,SW,225,0.0,2.0,94,0.00,,,0.58,Rainwise IP-100,2013-07-23 02:20:00,
2013-07-22 21:25:00,77.0,75.0,29.83,SW,225,0.0,2.0,94,0.00,,,0.58,Rainwise IP-100,2013-07-23 02:25:00,
2013-07-22 21:30:00,77.0,75.0,29.83,SW,225,1.0,2.0,94,0.00,,,0.58,Rainwise IP-100,2013-07-23 02:30:00,
2013-07-22 21:35:00,77.0,75.0,29.83,SW,225,1.0,2.0,94,0.00,,,0.58,Rainwise IP-100,2013-07-23 02:35:00,
2013-07-22 21:40:00,77.0,75.0,29.83,SW,225,1.0,2.0,94,0.00,,,0.58,Rainwise IP-100,2013-07-23 02:40:00,
2013-07-22 21:45:00,77.0,75.0,29.83,SW,225,1.0,2.0,94,0.00,,,0.58,Rainwise IP-100,2013-07-23 02:45:00,
2013-07-22 21:50:00,77.0,75.0,29.83,SW,225,0.0,2.0,94,0.00,,,0.58,Rainwise IP-100,2013-07-23 02:50:00,
2013-07-22 21:55:00,77.0,75.0,29.83,SW,225,1.0,2.0,94,0.00,,,0.58,Rainwise IP-100,2013-07-23 02:55:00,
2013-07-22 22:00:00,77.0,75.0,29.83,SW,225,1.0,2.0,94,0.00,,,0.58,Rainwise IP-100,2013-07-23 03:00:00,
2013-07-22 22:05:00,77.0,75.0,29.83,SW,225,0.0,2.0,94,0.00,,,0.58,Rainwise IP-100,2013-07-23 03:05:00,
2013-07-22 22:10:00,77.0,75.0,29.83,SW,225,0.0,2.0,94,0.00,,,0.58,Rainwise IP-100,2013-07-23 03:10:00,
2013-07-22 22:15:00,77.0,75.0,29.83,SW,225,0.0,2.0,94,0.00,,,0.58,Rainwise IP-100,2013-07-23 03:15:00,
2013-07-22 22:20:00,76.0,74.0,29.85,SW,225,2.0,6.0,97,0.00,,,0.58,Rainwise IP-100,2013-07-23 03:20:00,
2013-07-22 22:25:00,76.0,74.0,29.85,SSW,202,0.0,6.0,96,0.00,,,0.58,Rainwise IP-100,2013-07-23 03:25:00,
2013-07-22 22:30:00,76.0,74.0,29.85,ESE,112,2.0,5.0,96,0.00,,,0.58,Rainwise IP-100,2013-07-23 03:30:00,
2013-07-22 22:35:00,77.0,76.0,29.84,South,180,3.0,7.0,96,0.00,,,0.58,Rainwise IP-100,2013-07-23 03:35:00,
2013-07-22 22:40:00,76.0,74.0,29.84,South,180,1.0,4.0,96,0.00,,,0.58,Rainwise IP-100,2013-07-23 03:40:00,
2013-07-22 22:45:00,76.0,74.0,29.84,South,180,1.0,3.0,96,0.00,,,0.58,Rainwise IP-100,2013-07-23 03:45:00,
2013-07-22 22:50:00,76.0,74.0,29.84,WSW,247,2.0,3.0,96,0.00,,,0.58,Rainwise IP-100,2013-07-23 03:50:00,
2013-07-22 22:55:00,77.0,76.0,29.84,SSW,202,0.0,6.0,96,0.00,,,0.58,Rainwise IP-100,2013-07-23 03:55:00,
2013-07-22 23:00:00,76.0,74.0,29.84,SSW,202,3.0,4.0,96,0.00,,,0.58,Rainwise IP-100,2013-07-23 04:00:00,
2013-07-22 23:01:00,76.0,74.0,29.84,SSW,202,3.0,4.0,96,0.00,,,0.58,Rainwise IP-100,2013-07-23 04:01:00,
2013-07-22 23:06:00,76.0,74.0,29.84,South,180,3.0,6.0,96,0.00,,,0.58,Rainwise IP-100,2013-07-23 04:06:00,
2013-07-22 23:11:00,76.0,74.0,29.84,SW,225,1.0,5.0,96,0.00,,,0.58,Rainwise IP-100,2013-07-23 04:11:00,
2013-07-22 23:16:00,76.0,74.0,29.84,SW,225,1.0,2.0,96,0.00,,,0.58,Rainwise IP-100,2013-07-23 04:16:00,
2013-07-22 23:21:00,76.0,74.0,29.85,WSW,247,0.0,8.0,97,0.00,,,0.58,Rainwise IP-100,2013-07-23 04:21:00,
2013-07-22 23:26:00,76.0,75.0,29.85,West,270,2.0,7.0,98,0.00,,,0.58,Rainwise IP-100,2013-07-23 04:26:00,
2013-07-22 23:31:00,76.0,75.0,29.85,SW,225,0.0,4.0,98,0.00,,,0.58,Rainwise IP-100,2013-07-23 04:31:00,
2013-07-22 23:36:00,76.0,75.0,29.85,SSE,157,3.0,7.0,99,0.00,,,0.58,Rainwise IP-100,2013-07-23 04:36:00,
2013-07-22 23:41:00,76.0,76.0,29.85,SE,135,0.0,7.0,100,0.00,,,0.58,Rainwise IP-100,2013-07-23 04:41:00,
2013-07-22 23:46:00,76.0,76.0,29.85,SE,135,0.0,6.0,100,0.00,,,0.58,Rainwise IP-100,2013-07-23 04:46:00,
2013-07-22 23:51:00,76.0,76.0,29.85,SE,135,0.0,0.0,100,0.00,,,0.58,Rainwise IP-100,2013-07-23 04:51:00,
2013-07-22 23:56:00,76.0,76.0,29.85,SSW,202,0.0,1.0,100,0.00,,,0.58,Rainwise IP-100,2013-07-23 04:56:00,